Wind_Speed
29 29 29 30 29 29 29 29 29 29 29 30 30 31 31 31 31 30 29 26 24 21 21 21 23 24 27 29 32 33 33 33 33 33 35 35 35 34 33 32 29 26 24 23 25 27 27 26 26 26 26 26 24 22 20 19 17 15 13 12 11 11 11 11 11 11 11 11 11
29 29 30 30 29 29 28 28 28 28 29 30 31 31 31 30 30 30 30 29 27 24 21 20 20 21 23 26 29 30 30 30 30 32 33 33 33 33 33 31 29 27 25 24 25 26 27 27 27 27 27 25 23 22 20 18 16 14 12 12 11 11 11 11 11 11 11 11 10
28 29 30 30 29 28 28 27 28 29 30 30 31 31 30 29 29 29 29 29 28 26 23 21 20 20 21 23 25 26 26 26 28 29 30 31 32 32 32 30 27 26 26 25 25 27 28 28 29 28 27 25 23 22 20 17 15 13 12 12 12 12 11 11 11 11 10 10 9
28 29 30 30 31 31 30 30 30 32 32 32 31 30 30 29 28 28 28 28 28 27 26 25 22 20 20 21 22 23 24 25 26 27 29 30 31 31 30 28 25 25 25 25 26 28 29 29 29 28 26 24 23 21 19 16 14 13 13 12 12 12 11 11 11 10 10 9 8
28 30 30 31 33 34 33 33 33 34 33 32 31 30 29 29 28 27 27 28 28 28 29 29 26 24 22 21 22 23 24 24 26 27 29 31 31 30 27 24 23 24 25 27 29 30 30 30 28 26 25 23 21 19 17 15 14 14 13 12 12 12 11 11 10 10 9 8 7
28 30 32 32 34 35 34 34 34 34 33 31 30 29 29 28 28 28 27 28 29 29 28 29 29 28 26 24 23 23 23 24 25 27 29 30 30 27 25 23 23 24 26 29 30 31 31 30 27 25 23 21 19 17 16 15 14 14 13 13 12 12 11 11 10 9 8 7 7
29 31 32 33 35 35 35 34 33 32 31 30 30 30 30 29 29 29 29 28 29 28 27 27 28 29 30 28 27 26 25 24 24 26 28 28 27 25 23 23 24 26 28 30 31 31 30 29 27 25 22 20 18 16 15 14 13 13 13 13 12 12 11 10 9 9 8 7 7
29 31 33 34 35 35 35 33 31 30 29 29 30 31 31 30 30 29 29 28 29 28 27 27 27 29 31 31 31 29 28 27 26 26 26 26 25 24 23 24 25 27 28 29 30 30 29 28 26 24 21 19 18 16 15 14 13 12 12 12 12 12 11 10 10 9 8 7 7
28 31 33 34 34 34 33 32 30 29 29 29 30 31 31 30 29 29 29 28 29 28 27 27 27 28 30 31 32 32 31 30 28 27 26 25 24 24 24 25 27 28 28 28 29 29 28 26 24 22 20 19 18 17 15 14 13 12 12 12 12 12 11 11 10 9 8 7 8
28 31 32 33 32 32 30 29 28 29 29 29 29 29 29 28 29 29 30 29 29 28 28 28 28 29 30 31 32 32 32 31 30 28 26 25 25 26 27 28 29 29 29 29 29 28 27 24 22 20 19 19 18 18 16 15 13 13 13 13 13 12 12 11 10 9 9 9 9
28 31 32 31 30 29 28 27 27 27 28 28 28 28 27 27 28 30 30 29 29 29 29 29 29 30 31 32 32 32 32 32 31 30 28 28 28 29 29 29 30 31 31 31 29 27 25 22 21 20 20 19 19 18 16 14 14 13 13 13 13 12 12 11 11 10 10 10 10
28 29 30 29 29 28 27 26 26 26 26 26 26 27 27 27 28 29 30 29 29 29 29 29 30 31 32 32 32 32 32 33 32 31 31 31 30 30 30 30 31 32 32 31 28 25 23 22 22 21 20 19 18 17 15 14 14 13 13 13 12 12 11 11 11 10 10 10 10
26 27 27 27 28 28 27 26 25 24 25 25 26 26 27 27 28 29 29 29 30 29 29 29 29 30 31 32 32 32 32 33 33 32 31 31 31 31 31 31 31 32 31 29 26 24 23 22 22 21 20 18 16 15 14 14 14 13 13 12 12 11 11 11 10 10 9 9 9
24 25 25 26 27 27 26 25 24 24 24 25 25 26 27 27 28 29 29 30 30 29 29 28 28 28 29 31 31 32 32 32 32 31 30 30 30 31 31 31 32 31 30 27 25 24 23 23 22 21 19 17 16 15 14 13 13 12 12 11 11 11 11 11 10 9 9 9 9
22 23 25 25 26 25 25 24 23 23 24 24 25 26 27 27 28 29 30 30 30 29 28 28 27 27 27 28 30 30 30 30 30 30 29 29 30 31 32 32 31 30 28 26 25 23 23 22 21 19 17 16 16 15 14 12 11 11 11 11 11 11 11 10 10 9 10 9 9
21 22 23 24 24 24 24 23 23 23 24 25 25 26 27 27 28 29 30 30 29 29 28 28 28 27 27 27 28 28 28 29 30 30 29 29 30 31 31 31 31 30 28 26 25 23 22 20 18 17 16 16 16 15 13 12 11 11 10 10 10 10 10 9 9 9 9 9 9
20 21 22 23 23 23 23 22 22 23 24 25 26 26 27 27 28 28 29 29 29 29 28 28 28 27 27 27 27 27 27 28 29 29 30 30 30 31 31 31 30 29 28 26 24 22 19 17 16 15 15 16 15 14 13 12 11 11 10 10 9 9 9 9 9 9 9 9 10
19 20 21 22 22 22 22 22 22 23 25 26 26 27 27 27 27 27 28 29 29 29 28 27 26 26 27 27 26 26 26 27 28 28 29 30 31 31 31 31 29 28 26 24 22 20 18 16 16 16 16 15 14 13 13 12 11 10 10 9 9 9 9 9 8 8 9 10 11
19 19 20 21 21 21 21 21 22 23 25 25 26 26 26 27 27 27 27 28 28 28 28 26 25 25 26 27 25 24 24 25 26 27 28 30 31 31 31 29 27 25 24 22 20 19 18 17 17 16 16 15 14 13 12 11 10 9 9 9 9 9 9 8 8 9 9 10 11
19 19 20 20 20 20 20 20 21 23 23 24 25 25 25 26 26 27 27 27 27 27 26 25 25 25 26 26 25 23 23 24 26 28 29 30 30 30 28 27 25 23 22 21 20 19 18 17 16 16 14 13 12 11 11 10 9 9 9 9 9 8 8 8 8 9 10 11 11
19 19 19 19 20 20 20 20 21 22 22 23 23 24 24 25 25 26 26 26 26 25 25 24 25 25 26 25 24 23 24 25 27 29 30 29 29 27 26 25 24 23 22 22 21 20 19 17 15 14 12 11 11 11 10 10 10 9 9 8 8 7 7 7 8 10 11 11 12
18 18 19 19 20 20 20 20 21 21 22 22 22 23 23 24 24 25 25 25 25 25 24 24 25 26 26 25 24 24 25 26 27 28 29 28 27 26 26 25 25 24 23 22 21 20 18 16 14 12 11 11 11 10 10 10 9 8 7 7 6 7 8 9 10 11 12 12 13
17 17 18 19 20 21 21 21 21 21 21 21 21 22 22 23 24 24 25 25 25 25 25 25 25 25 25 25 25 25 25 26 27 28 28 28 28 27 26 26 25 24 23 22 20 18 16 15 13 12 12 11 11 10 9 9 8 7 6 6 7 7 8 10 11 12 12 13 13
15 16 17 19 20 21 22 22 22 21 21 21 21 22 22 23 24 25 25 25 25 25 25 25 25 25 25 25 25 26 26 27 28 28 28 28 28 27 26 25 24 22 21 19 18 16 15 14 13 13 12 12 11 10 9 8 7 6 6 7 7 8 9 10 11 12 12 13 13
15 16 17 18 20 21 21 22 22 22 21 21 22 22 23 23 24 25 25 25 25 25 25 25 25 25 25 25 26 26 27 28 29 29 28 28 27 26 25 23 21 20 18 17 15 14 14 13 13 13 12 11 10 9 8 7 7 6 7 7 8 9 10 11 11 12 12 12 12
16 16 17 18 19 20 20 21 21 22 22 23 23 23 24 24 24 24 25 25 24 25 25 25 25 25 25 26 27 27 27 28 28 28 28 27 26 24 23 21 20 18 17 16 14 14 13 13 13 12 11 10 9 8 7 7 7 7 7 8 9 10 11 12 12 12 11 10 10
17 17 17 18 19 19 20 20 21 22 23 24 24 24 24 24 24 24 25 24 24 24 24 24 24 25 25 26 27 27 27 27 27 27 26 25 24 23 22 21 20 18 17 16 15 13 12 12 12 11 11 10 8 7 6 6 6 6 7 8 9 10 11 12 12 11 9 8 8
18 18 18 18 19 19 19 21 21 22 23 23 24 24 24 24 24 24 25 25 25 24 24 24 24 25 26 26 27 27 27 27 26 26 25 25 24 24 23 22 20 18 17 15 14 12 11 10 10 10 9 8 7 5 4 4 5 6 7 8 9 10 11 11 10 9 7 6 6
19 19 19 19 19 19 20 20 21 22 22 23 24 24 24 24 24 24 24 24 24 24 23 23 24 25 26 26 27 27 27 27 26 26 26 25 25 24 23 21 20 18 16 14 13 11 10 8 8 7 7 6 4 3 3 3 4 6 7 8 9 9 9 8 7 6 5 5 4
20 20 20 20 20 20 19 19 20 21 22 22 23 24 24 24 24 23 23 23 23 23 24 25 25 26 26 27 27 27 27 27 27 27 26 26 25 24 22 20 19 17 15 13 12 11 9 8 6 5 4 3 2 2 3 4 5 6 7 8 8 7 6 5 4 4 3 3 3
21 21 21 21 20 19 19 19 19 20 21 21 22 22 23 23 22 22 23 23 23 24 25 26 27 28 28 28 28 28 28 27 27 26 26 25 24 22 21 19 17 15 14 12 11 10 9 7 5 3 2 1 1 3 4 5 6 7 7 6 5 4 3 3 2 2 2 2 2
21 21 21 21 20 20 19 19 19 20 20 21 21 22 22 22 22 23 23 24 24 25 26 28 28 29 28 28 28 28 28 27 26 25 24 24 22 21 19 18 16 14 12 11 10 8 7 5 3 2 1 1 2 4 5 6 6 6 5 4 3 2 2 2 1 1 1 2 2
21 21 21 21 20 20 19 19 19 19 20 21 22 22 23 23 23 24 24 24 25 27 28 29 29 29 29 28 28 27 27 26 25 24 23 22 21 20 19 17 15 13 11 9 8 6 5 3 2 1 0 2 3 5 5 6 6 4 2 2 2 2 2 1 1 1 1 2 2
22 22 21 20 20 19 19 19 20 20 21 21 22 23 23 24 24 24 24 25 26 27 28 29 29 29 29 28 28 27 26 24 23 22 21 20 19 19 17 16 14 12 9 7 6 5 4 4 3 2 0 2 4 5 5 5 3 1 2 3 3 2 2 1 0 1 2 2 3
23 23 22 21 21 21 21 21 21 21 22 22 22 23 23 24 24 25 25 26 26 27 28 28 28 28 28 27 26 25 25 23 22 21 19 18 17 16 15 14 12 10 8 6 5 5 5 5 4 2 0 2 3 4 4 3 1 1 2 3 3 2 1 0 1 2 3 4 5
24 24 24 23 23 22 22 22 22 22 23 23 23 23 23 24 24 25 26 27 27 27 27 27 27 27 26 26 25 24 23 22 20 19 17 15 14 14 13 12 11 9 8 6 6 6 6 6 5 3 0 2 3 4 3 2 0 2 3 3 3 2 1 1 2 3 4 5 6
23 24 24 24 23 23 23 23 23 24 23 23 23 23 24 24 24 25 26 27 27 27 27 27 26 26 25 25 23 22 20 19 18 16 14 13 12 11 11 10 10 10 9 7 7 7 7 7 5 3 0 2 3 4 3 2 0 2 3 3 3 2 1 2 3 4 5 5 6
22 23 23 23 23 23 23 24 24 24 24 23 23 24 24 25 25 25 25 26 27 26 26 25 25 24 24 23 21 20 18 16 14 13 11 10 9 9 10 10 11 11 10 8 8 8 8 7 5 2 1 3 4 4 3 1 1 3 3 3 2 1 2 3 5 5 6 6 5
21 22 22 23 23 23 23 23 23 24 24 24 24 24 24 24 24 23 23 24 25 26 25 24 23 22 21 20 18 17 15 13 11 10 9 9 9 9 10 11 11 11 10 9 8 8 7 6 4 2 1 3 3 3 2 1 1 2 1 1 1 2 4 5 6 7 7 6 5
20 21 22 22 22 22 22 22 22 23 24 24 24 24 23 23 22 22 22 23 23 24 24 23 22 20 18 17 16 14 13 11 10 9 8 8 8 9 9 10 10 10 9 8 7 6 6 5 4 3 2 2 2 2 2 1 1 1 1 2 4 5 6 7 8 8 8 7 6
21 21 22 22 22 22 22 22 22 22 23 24 24 23 23 23 22 22 22 22 22 22 21 20 19 17 16 15 14 13 12 10 9 8 8 7 7 8 8 9 9 9 9 8 6 6 6 5 5 4 3 2 2 2 3 3 3 3 3 4 5 6 7 8 8 8 8 7 7
Wind_Direction
213 210 208 207 206 205 205 206 208 208 206 205 205 205 204 203 202 202 202 203 206 210 213 212 209 207 205 204 201 199 198 199 200 200 198 197 194 191 191 195 206 216 221 215 202 197 198 200 202 203 204 205 204 200 197 195 194 191 188 186 186 188 190 189 189 192 197 204 208
213 209 208 206 205 204 204 205 206 208 208 208 207 206 205 204 203 202 201 201 201 203 207 210 210 209 208 206 202 199 197 197 198 197 195 193 190 189 190 196 207 218 224 221 206 197 197 199 201 201 200 199 196 192 189 188 188 187 185 185 188 190 190 188 188 191 196 201 206
212 208 206 204 203 202 202 204 205 207 209 210 209 208 206 204 203 203 202 201 198 196 197 201 206 208 208 206 201 197 196 196 196 194 191 189 189 190 193 198 208 220 226 221 205 195 194 198 200 198 195 192 190 186 182 181 182 184 185 186 188 189 188 186 187 189 194 200 206
212 208 205 204 203 203 204 205 207 209 210 211 210 207 205 204 203 202 201 199 197 194 193 195 197 201 204 203 198 195 196 198 197 193 189 189 191 193 195 198 206 215 217 209 196 190 192 196 197 195 191 187 185 182 179 178 180 183 185 185 186 187 186 186 188 191 194 200 206
212 208 206 206 206 207 207 208 210 210 210 210 207 205 203 203 202 200 199 197 195 193 193 196 193 194 197 197 194 194 196 199 198 195 193 193 194 195 197 198 201 203 200 193 185 184 189 194 194 191 187 183 181 180 180 180 182 182 183 183 184 185 186 187 190 193 196 200 206
213 210 209 208 209 210 210 211 211 210 208 207 204 202 201 200 199 198 196 195 194 193 192 194 192 191 191 191 192 193 195 197 197 196 195 194 194 194 195 195 191 187 183 180 178 181 186 190 189 185 181 178 177 178 180 181 182 181 181 180 182 184 186 188 192 195 198 202 207
215 212 210 210 210 211 211 212 212 210 208 206 202 200 199 199 197 197 196 195 192 191 190 190 190 190 189 188 189 191 193 193 192 192 192 191 191 192 192 188 183 178 176 175 177 181 184 186 183 179 176 175 174 174 175 178 180 181 180 180 182 184 186 190 194 198 202 205 211
217 214 212 211 211 212 211 211 210 207 205 203 202 201 201 199 197 196 195 193 190 188 188 189 189 189 187 186 186 187 189 189 188 188 189 189 190 191 191 186 179 175 175 176 178 179 181 181 179 176 173 172 170 169 170 174 178 181 183 184 185 187 190 194 199 202 204 205 210
216 215 214 213 212 211 210 209 208 206 203 202 202 202 200 198 196 194 192 190 188 187 186 186 186 186 184 183 182 182 184 185 185 186 187 190 192 193 190 185 179 176 176 179 179 179 178 179 177 174 171 169 168 168 170 173 177 182 186 189 190 191 194 197 201 202 202 202 208
215 214 213 211 210 209 208 207 207 206 204 201 201 200 197 194 193 192 190 188 186 185 184 184 184 182 181 180 179 179 180 183 184 186 188 191 194 194 189 183 178 176 177 179 180 180 179 178 173 169 167 169 171 171 171 172 176 182 188 193 195 195 197 199 202 202 202 202 209
216 213 210 208 207 206 204 203 204 204 202 198 198 196 193 191 190 190 189 186 183 182 183 184 182 181 179 179 179 179 181 184 187 189 191 193 194 191 186 180 177 176 177 179 180 180 178 174 169 167 168 173 176 175 172 172 177 184 190 194 198 199 200 202 204 203 203 205 210
215 211 208 205 203 201 200 199 199 198 196 193 193 191 189 188 188 187 186 183 181 181 182 184 182 180 179 179 179 181 184 187 189 190 191 190 189 185 181 177 175 176 177 178 179 177 174 170 169 169 173 177 178 175 171 173 180 187 193 196 200 203 204 205 204 204 204 207 212
211 206 203 200 199 198 197 196 194 192 191 190 187 185 184 185 186 185 183 181 180 180 180 181 180 179 179 179 180 182 185 186 188 188 186 184 181 178 175 174 174 175 176 177 176 173 169 169 172 175 176 176 174 171 170 176 184 190 194 197 201 203 204 204 203 204 206 210 216
205 200 197 196 194 193 192 191 189 187 186 184 181 180 180 181 182 182 180 179 178 177 177 177 177 178 179 179 180 182 183 183 183 181 178 176 174 173 172 173 174 174 174 173 171 169 169 172 176 178 176 170 167 167 172 179 185 190 194 197 199 200 200 201 202 206 211 218 225
198 195 194 192 190 187 185 184 182 181 179 176 176 176 176 176 177 178 178 176 175 175 174 174 174 176 177 178 179 179 178 177 176 174 171 170 171 171 171 172 173 172 170 168 168 169 172 177 178 176 170 164 164 168 173 179 183 187 191 194 197 198 199 201 207 214 222 229 235
191 190 189 187 184 181 179 177 175 174 173 171 171 171 171 171 173 174 174 173 172 172 173 173 174 174 174 175 175 174 172 172 171 169 167 167 168 169 170 170 170 168 166 165 167 171 175 177 174 168 163 162 164 168 172 176 179 183 188 193 198 202 206 212 219 225 231 236 240
185 184 183 181 180 178 175 173 170 169 168 168 168 168 168 168 169 170 171 171 171 172 172 173 173 172 170 171 171 170 169 169 168 166 165 165 166 167 167 167 166 166 165 166 168 170 170 166 162 160 160 163 165 168 173 177 182 187 193 200 207 214 220 225 228 231 233 236 239
180 179 178 178 178 176 173 170 167 165 165 165 166 166 166 166 166 166 169 172 173 172 172 171 171 169 168 168 168 168 168 167 166 164 163 164 164 164 164 164 164 165 166 168 167 163 158 154 155 159 162 165 167 172 178 184 190 197 205 213 220 225 228 231 232 234 235 237 239
173 173 173 175 174 172 170 167 164 163 162 163 163 163 164 164 165 166 169 171 173 173 171 168 167 166 166 166 165 166 166 165 163 161 161 162 163 163 162 161 162 164 164 163 158 153 150 152 156 160 164 168 173 179 186 194 201 208 216 222 225 227 230 232 235 237 239 241 244
168 167 168 170 170 169 167 165 163 163 162 161 161 161 162 164 166 167 168 169 170 170 167 164 162 162 163 163 162 162 162 161 160 159 160 162 162 161 160 159 159 158 155 152 148 147 149 153 156 160 165 171 179 188 196 203 208 213 217 220 222 226 230 235 240 243 245 247 249
165 164 165 166 166 166 165 163 163 163 161 160 159 160 161 163 165 166 166 166 165 163 161 159 158 158 158 158 157 157 157 158 158 159 159 160 159 158 156 154 151 149 147 146 146 148 151 154 156 159 166 175 186 196 202 206 209 211 214 218 223 230 237 244 248 250 251 253 254
163 162 163 164 165 165 164 163 161 161 160 158 158 159 160 161 161 161 161 160 158 156 155 154 154 154 154 155 154 153 154 155 156 156 156 155 154 153 151 149 147 145 146 147 149 150 151 152 154 160 169 178 186 193 196 198 201 205 211 220 231 241 248 252 254 256 257 259 260
160 160 161 162 163 163 162 160 159 158 157 155 155 156 155 155 155 155 154 153 152 151 150 150 150 151 152 152 151 151 150 151 151 152 152 151 149 148 147 147 147 147 148 150 151 150 149 150 155 163 171 177 180 183 186 190 196 205 217 230 241 249 255 258 261 263 264 265 266
155 156 157 158 159 158 157 156 154 153 151 151 150 150 149 148 148 148 148 147 147 146 146 146 146 147 148 149 149 149 148 147 146 146 146 146 146 145 146 147 148 149 149 149 148 148 150 155 161 168 173 177 179 182 188 196 205 216 229 241 250 257 262 265 268 270 272 273 272
148 148 149 150 150 151 150 150 148 147 145 144 144 143 142 142 143 143 142 142 142 142 142 142 143 144 145 146 147 147 147 146 145 143 143 143 144 145 146 147 147 146 145 144 146 150 156 163 170 174 177 181 186 191 199 208 219 230 240 250 258 264 269 272 275 276 278 277 275
140 140 140 141 142 143 143 142 141 140 139 138 138 138 137 138 138 138 138 137 137 139 140 140 140 141 142 143 144 144 145 145 145 145 144 143 143 143 144 143 141 139 139 140 144 151 159 167 174 180 184 188 193 200 208 220 231 242 251 259 266 270 275 278 280 280 280 279 276
129 130 131 134 134 133 133 133 133 133 132 133 132 132 133 134 134 133 133 133 134 136 137 137 138 139 140 141 142 142 143 144 144 144 143 142 140 139 137 135 134 133 133 134 137 146 158 169 177 184 189 193 199 206 218 231 245 256 265 272 275 278 280 282 284 284 282 280 276
116 119 122 123 123 122 124 125 126 126 127 128 128 128 129 129 128 129 130 131 132 133 134 135 136 138 139 140 141 142 142 142 141 140 139 137 135 133 131 131 131 132 133 136 141 147 156 167 178 186 193 198 204 214 230 251 268 277 282 284 285 286 286 287 287 287 286 283 279
107 110 112 112 112 113 116 118 119 121 122 124 124 125 125 125 126 127 128 130 131 131 131 133 135 137 138 138 139 139 139 138 137 135 133 132 130 129 129 129 131 134 137 140 143 145 149 158 172 184 193 202 211 229 259 283 293 296 296 295 294 293 292 290 290 289 287 283 279
103 104 104 105 106 107 109 112 115 117 119 120 122 122 123 124 125 127 128 129 129 130 131 133 135 135 135 136 136 136 134 134 133 133 132 131 130 130 131 133 135 139 142 142 142 143 146 150 162 178 191 206 230 280 308 312 311 309 306 304 300 295 291 286 283 281 278 275 269
101 102 102 102 102 103 105 108 111 114 116 117 119 121 122 123 124 125 126 127 127 129 132 135 134 133 133 134 134 133 132 133 133 134 134 134 134 136 138 140 142 143 142 142 146 148 150 153 161 176 199 238 313 332 333 328 322 317 312 306 297 286 274 263 259 257 257 257 256
102 102 102 101 101 102 104 106 109 111 114 115 117 118 119 120 121 123 124 126 128 130 132 133 132 131 131 132 132 132 133 134 136 138 139 141 141 143 145 147 146 144 143 147 153 158 160 162 166 181 218 328 348 346 340 333 326 319 309 293 269 243 224 218 218 233 252 263 271
104 103 102 101 101 103 104 106 108 110 112 113 114 115 116 118 120 122 124 127 130 131 132 132 131 131 131 131 132 133 135 138 140 143 146 147 148 149 149 149 148 146 146 154 160 162 158 151 151 156 38 357 354 347 338 331 324 313 286 233 199 183 177 175 192 252 282 296 304
107 106 104 102 103 105 106 107 108 109 110 110 112 114 117 119 121 122 125 128 130 131 132 132 133 133 135 136 137 138 140 143 145 148 150 152 152 152 152 152 153 152 152 156 154 144 133 130 137 144 37 358 351 343 336 330 319 281 206 181 169 164 159 161 219 308 320 324 328
111 110 108 107 108 109 109 110 110 111 111 111 113 116 119 121 123 124 126 129 130 131 132 133 135 137 138 140 142 143 145 146 147 149 150 151 152 153 154 155 154 153 150 144 135 128 129 138 152 163 305 352 350 345 341 337 307 194 179 172 166 163 167 199 314 328 333 335 337
114 115 114 114 114 115 116 116 117 117 117 116 117 119 121 123 124 127 129 131 132 132 133 135 137 139 140 142 144 145 146 145 145 145 146 148 151 152 153 152 148 144 140 136 132 134 142 154 166 173 165 6 359 356 356 356 305 185 185 183 182 188 211 295 333 339 342 343 344
118 119 120 120 120 122 123 124 124 123 122 122 122 122 123 124 126 129 132 134 134 134 135 138 139 140 142 143 143 143 143 143 141 142 143 146 148 148 147 145 141 141 143 145 144 145 151 158 164 168 152 11 7 7 7 6 201 197 197 200 205 221 273 324 341 347 351 352 353
122 123 124 125 125 125 127 127 126 125 125 125 125 126 126 128 129 132 135 137 136 136 137 139 140 141 142 143 141 140 139 138 138 138 139 141 143 142 142 140 139 143 149 156 154 153 154 159 168 181 320 1 7 11 14 23 192 200 205 213 228 273 324 343 351 357 1 3 6
124 125 126 126 126 126 126 126 126 126 126 127 127 128 129 129 131 133 137 139 140 140 139 139 140 141 141 140 137 136 135 135 135 134 134 135 137 139 141 141 142 146 152 158 157 154 155 161 174 203 295 345 2 11 21 49 174 193 209 247 322 344 352 356 360 3 5 6 6
124 125 126 125 125 125 125 125 125 127 128 128 128 129 129 130 132 135 138 140 141 141 141 140 140 139 138 136 135 135 136 136 136 135 136 138 141 144 147 149 151 154 157 158 156 156 158 162 178 209 266 317 347 5 16 24 40 37 15 7 3 2 1 359 358 358 358 356 351
124 125 125 124 124 124 124 123 124 126 128 129 129 129 131 133 134 136 138 139 139 139 138 137 136 135 135 135 136 138 140 142 144 146 147 149 152 156 161 165 169 172 172 167 163 161 162 168 183 207 242 277 324 352 1 5 11 14 14 9 6 1 358 354 351 349 346 343 340
Height
735 735 736 737 738 740 741 742 744 745 746 747 748 749 750 750 751 752 755 758 761 763 765 766 766 766 766 765 766 766 767 768 769 770 771 772 773 775 775 776 777 780 783 786 788 790 791 792 794 796 798 800 801 802 803 804 804 804 803 804 805 806 807 807 808 810 812 815 816
733 734 734 735 737 739 740 741 743 744 745 745 746 747 748 749 750 751 752 754 756 759 763 765 767 767 767 767 767 767 768 768 769 770 771 773 774 775 775 776 777 779 782 785 787 789 791 792 794 795 797 799 800 801 802 803 803 802 802 803 805 806 807 808 809 810 812 814 815
732 732 733 734 735 737 739 740 741 742 743 744 745 746 747 748 749 750 751 752 753 755 759 762 765 767 768 769 769 770 770 770 770 771 772 774 775 775 775 776 777 779 781 783 785 788 790 792 794 795 796 797 799 800 801 801 801 802 802 803 805 806 807 808 809 810 811 813 814
730 731 732 733 734 735 736 737 738 739 740 742 743 745 746 747 748 750 751 752 753 753 755 758 762 766 768 770 770 770 771 771 771 772 773 774 775 776 776 776 777 779 780 781 783 786 789 792 794 794 795 796 798 799 800 800 801 801 802 803 805 806 807 808 809 810 811 812 813
729 730 730 731 732 733 734 735 736 737 738 740 741 743 745 746 748 749 750 751 752 752 752 754 758 762 767 769 770 770 770 771 771 771 772 773 774 775 776 777 778 779 779 780 782 785 789 792 794 794 795 796 797 798 799 799 800 801 802 803 805 806 807 808 809 810 810 811 812
727 728 729 730 730 731 732 733 734 735 736 738 740 741 743 745 746 748 749 750 751 752 752 753 755 758 763 766 768 769 770 771 771 772 772 772 772 774 776 778 779 779 780 780 782 785 788 791 793 794 795 795 796 797 798 799 800 801 802 803 805 805 807 808 809 810 810 810 811
725 726 727 728 729 730 731 732 733 734 735 737 739 740 741 743 744 746 747 749 750 751 753 754 755 756 758 761 765 767 769 770 771 772 773 773 773 775 776 778 779 780 781 782 783 785 788 790 792 793 794 795 795 796 797 799 800 801 803 804 805 805 806 807 808 809 809 810 810
724 725 725 726 727 728 729 731 732 734 735 736 737 738 739 741 743 745 746 748 749 750 752 753 754 755 756 757 760 763 766 768 770 771 773 774 775 776 777 778 779 780 781 783 784 785 788 790 791 791 792 793 794 795 797 799 800 802 803 804 805 805 806 807 808 808 808 809 810
722 723 724 725 726 727 729 730 731 732 733 734 735 737 739 740 742 743 745 746 748 749 751 752 753 754 755 756 758 760 762 764 767 770 772 774 775 776 776 777 778 780 781 783 785 786 788 790 790 790 791 792 794 795 797 799 800 802 803 804 805 805 806 806 807 807 807 808 810
720 721 722 724 725 727 728 730 731 731 732 733 735 736 738 740 741 742 743 745 747 749 750 751 752 753 755 756 757 758 759 761 764 768 771 773 774 775 775 776 777 778 781 783 785 786 787 789 789 790 791 792 793 795 797 799 800 802 803 804 805 805 805 806 806 806 807 808 810
718 719 720 722 724 726 727 729 730 731 732 733 735 736 738 739 740 741 742 744 746 748 749 750 751 752 753 754 755 756 758 760 763 766 769 770 771 772 774 775 775 777 780 783 784 785 786 787 788 789 790 791 793 795 796 798 800 802 803 804 805 805 805 805 805 806 807 808 809
717 718 720 721 723 725 726 727 729 730 731 733 734 736 737 738 739 740 742 744 745 747 748 749 750 751 752 753 754 756 758 760 763 765 766 768 769 771 773 775 776 777 780 782 783 784 785 786 787 788 790 791 793 795 796 798 800 801 803 804 804 805 805 805 805 806 806 807 808
717 718 720 721 722 724 725 727 728 730 731 732 734 735 736 738 739 740 742 744 745 747 748 750 750 751 752 753 755 756 758 760 762 763 765 766 768 770 772 774 776 778 780 781 782 783 784 785 786 788 789 791 793 795 797 799 800 801 802 803 804 805 805 805 805 806 806 807 807
718 719 720 720 721 723 725 726 728 729 731 732 733 735 736 737 739 740 741 743 745 746 748 750 751 752 753 754 756 757 759 760 761 763 765 766 768 770 771 774 776 778 779 780 781 782 783 785 786 788 790 791 793 795 797 799 800 801 802 803 804 805 805 805 805 805 806 806 806
718 719 720 720 721 723 724 726 727 729 730 732 733 734 735 737 739 740 741 743 744 746 748 749 751 752 754 755 756 758 759 760 761 763 764 766 768 770 771 774 776 777 778 779 780 781 783 785 787 788 790 792 794 796 798 799 800 802 803 804 804 805 805 804 805 805 805 805 806
718 719 720 721 722 723 724 726 727 729 730 731 733 734 735 737 738 740 741 742 744 745 747 749 750 752 753 755 756 758 759 760 761 762 764 766 768 770 772 774 775 776 777 778 780 782 784 786 787 789 791 793 795 796 798 799 800 802 803 804 804 804 804 804 804 804 805 805 805
719 720 720 721 723 724 725 726 727 729 730 731 732 734 735 736 738 740 741 742 743 745 747 748 750 751 752 754 756 758 759 760 760 761 763 766 768 770 772 774 775 775 776 778 780 782 785 786 788 790 792 794 795 796 798 799 800 801 802 803 803 803 803 803 804 804 804 804 805
719 720 721 722 724 725 726 727 728 729 730 731 732 734 735 736 738 739 741 742 743 745 746 748 750 751 752 754 756 758 759 760 761 762 764 766 769 770 772 773 774 775 776 778 780 783 785 787 789 791 792 794 795 796 798 799 800 801 802 802 803 803 803 803 803 803 804 805 805
720 721 722 724 725 726 727 728 728 729 730 731 732 734 735 736 738 739 741 742 744 745 746 748 750 751 752 754 756 758 760 761 761 763 765 767 769 770 771 772 773 775 776 779 781 783 785 788 790 791 792 794 795 796 798 799 800 801 802 802 803 803 803 803 803 803 804 805 805
720 721 723 725 726 727 728 729 729 730 731 732 733 735 736 737 738 739 741 742 744 745 747 748 750 751 753 755 756 759 760 761 762 764 765 767 769 770 771 772 773 775 777 780 782 784 786 788 790 791 792 794 795 797 798 799 800 801 802 802 802 803 803 803 803 803 804 804 804
721 722 724 725 726 728 729 730 730 731 733 734 735 735 737 738 739 740 741 743 744 746 747 749 750 752 753 755 757 759 760 762 763 764 766 768 769 770 771 772 773 775 778 780 782 785 786 788 790 791 792 794 795 797 798 800 800 801 801 801 802 802 802 802 803 803 804 804 803
722 724 725 725 727 728 729 730 731 733 734 735 735 736 737 738 740 741 742 744 745 747 748 750 751 752 754 756 758 759 761 762 764 765 766 768 769 770 771 772 774 776 778 781 783 785 787 789 790 791 793 795 796 798 799 800 800 800 800 800 801 801 802 802 803 803 803 803 803
724 725 725 726 727 728 730 731 732 733 734 735 736 737 738 739 740 741 743 744 746 747 749 750 752 754 755 757 758 760 761 763 764 765 766 768 769 770 771 773 775 777 779 782 784 786 787 789 790 792 794 795 797 798 799 799 799 799 799 800 800 800 801 802 803 803 803 802 802
725 726 726 727 728 729 730 731 732 734 735 736 737 738 739 740 741 742 743 745 746 748 750 751 753 755 756 758 760 761 762 763 764 765 767 768 769 770 772 774 776 779 781 783 785 786 788 790 791 793 794 795 796 797 798 798 798 798 799 799 800 800 801 802 802 802 802 802 801
726 727 728 728 729 730 730 732 733 734 735 736 737 738 739 740 742 743 744 745 747 749 751 752 754 756 757 759 760 761 762 763 765 766 767 769 770 771 774 776 778 780 782 784 786 787 789 790 792 793 794 795 796 796 797 797 797 798 798 799 799 800 801 801 802 802 801 801 800
727 728 729 730 730 731 732 733 733 734 735 736 738 739 740 741 742 744 745 746 748 750 752 753 755 757 758 760 761 762 764 765 766 767 768 770 771 773 775 777 779 781 783 785 787 789 790 791 792 793 794 795 795 796 796 796 797 797 798 798 799 800 800 801 801 801 801 800 800
728 729 730 731 732 733 733 734 735 735 736 737 739 740 741 742 743 745 746 748 750 751 753 755 756 758 760 760 762 764 765 767 768 769 770 771 772 775 776 779 780 783 785 786 788 789 790 791 792 793 794 794 795 795 796 796 796 797 798 798 799 799 800 800 800 800 800 800 799
729 730 731 732 733 734 735 735 736 737 738 739 740 741 742 743 745 746 748 750 751 753 755 756 758 759 760 762 763 765 766 768 769 770 771 772 774 776 778 780 782 784 785 787 788 790 790 791 792 793 793 794 795 795 795 796 796 797 798 798 799 799 799 799 800 799 799 799 798
731 732 733 734 735 736 737 738 739 739 740 740 741 742 744 745 747 748 750 752 753 755 756 757 759 760 761 763 765 766 767 769 770 771 772 774 775 777 779 781 783 785 786 788 789 790 791 791 792 793 793 794 794 795 795 796 796 797 797 798 798 799 799 799 799 799 798 798 798
733 734 735 736 737 738 740 740 741 741 742 743 743 745 746 747 749 750 752 753 755 755 757 758 760 761 763 764 765 767 768 770 771 772 774 775 777 778 780 782 784 785 787 788 789 790 791 791 792 793 793 794 794 795 795 796 796 797 797 798 798 799 799 799 798 798 798 797 797
735 736 737 738 739 740 742 743 744 744 745 745 746 747 748 750 751 753 754 755 756 757 758 759 760 762 764 765 766 768 769 770 772 773 775 776 778 780 781 783 785 786 788 789 790 790 791 791 792 793 793 794 794 795 795 796 796 797 797 798 798 798 798 798 798 797 797 797 797
737 738 739 740 741 743 744 745 746 746 747 748 748 749 750 751 753 754 755 756 757 758 760 761 762 764 765 766 768 769 770 772 773 775 776 778 779 781 782 784 785 787 788 789 790 790 791 791 792 793 793 794 794 795 795 796 796 797 797 798 798 798 798 797 797 797 797 797 797
739 740 742 743 744 745 746 748 749 749 750 750 750 751 752 753 754 755 757 758 759 760 761 762 764 765 766 768 769 770 772 774 775 776 778 779 780 782 783 785 786 788 789 789 790 790 791 792 792 793 793 794 795 795 795 796 797 797 797 797 797 797 797 797 797 797 797 797 797
741 742 744 745 746 747 749 750 751 752 752 752 753 753 754 755 756 757 759 760 761 762 763 764 765 766 767 769 770 772 773 775 776 777 779 780 781 783 784 785 787 788 789 790 790 790 791 792 792 793 794 794 795 795 796 796 796 797 797 797 797 797 797 797 797 797 797 796 796
742 744 745 747 748 749 750 752 753 754 755 755 755 756 756 757 758 760 761 762 763 764 765 766 767 768 769 770 771 773 774 776 777 779 780 781 783 784 785 786 787 788 789 790 790 791 791 792 793 793 794 795 795 796 796 796 796 796 796 797 797 797 797 797 797 797 796 796 795
744 745 746 748 749 750 752 753 754 755 756 757 757 758 759 760 760 761 762 763 764 765 766 768 768 769 770 772 773 774 775 777 778 780 781 782 784 785 786 787 788 789 789 790 790 791 792 793 793 794 794 795 795 795 796 796 796 796 796 797 797 797 797 797 797 796 795 795 794
746 746 748 749 750 751 753 754 755 756 757 758 759 759 760 761 762 763 764 765 765 766 768 769 770 770 772 773 774 776 777 778 780 781 782 784 785 785 786 787 788 789 790 791 791 792 793 793 794 794 795 795 795 795 795 796 796 796 797 797 797 797 797 796 796 795 794 794 793
748 749 750 750 752 753 754 755 755 757 758 759 760 760 761 762 763 765 765 766 766 768 769 770 771 772 773 774 776 777 779 780 781 782 784 785 785 786 787 788 789 790 791 792 792 793 793 794 794 794 795 795 795 796 796 796 796 797 797 797 797 796 796 795 795 794 793 793 793
751 751 752 752 753 754 755 756 757 758 759 760 760 762 763 764 765 766 767 768 768 769 770 771 772 774 775 776 777 779 780 782 783 784 785 786 786 787 788 789 789 790 791 792 793 794 794 794 794 794 795 795 796 796 796 796 796 796 796 796 796 795 795 794 794 793 793 793 793
753 753 754 755 755 756 757 758 759 760 760 761 762 763 764 765 766 768 769 770 770 771 771 773 774 775 777 778 779 780 781 783 784 785 786 787 787 788 789 790 790 791 792 793 793 794 794 794 795 795 795 795 796 796 796 796 796 796 795 795 795 794 794 794 793 793 793 793 793
754 755 755 756 757 758 759 760 760 761 762 763 763 764 765 767 768 769 770 771 772 773 773 774 775 777 778 779 780 781 783 784 785 786 787 787 788 789 790 790 791 792 792 793 794 794 795 795 795 795 795 795 795 795 795 795 795 795 794 794 794 794 793 793 793 793 793 793 793